IRIDIUM 176 (43923 NORAD) Tracking and Keplerian Element Data

This shows tracking and keplerian element data for the satellite.

Feedback or suggestion? Click here.




ElementValue
Catalog43923
NameIRIDIUM 176
Epoch Orbit425
Epoch Day40.50241726
Epoch Year2019
RAAN35.5009
Inclination86.6091
Eccentricity0.0002499
Argument of Perigee89.8326
Mean Anonmoly270.3177
Mean Motion14.72263689
Decay Rate7.1E-07
L11 43923U 19002B 19040.50241726 .00000071 00000-0 73456-5 0 9992
L22 43923 86.6091 35.5009 0002499 89.8326 270.3177 14.72263689 4251

Live tracking and technical data element details for IRIDIUM 176 (NORAD 43923). IRIDIUM 176 can be tracked NOW for your location showing map with azimuth and elevation plus other details from your city location.

Track the satellite on the map from your city or location and see movement details for azimuth, elevation, latitude, longitude, range, height, and movement on the map or in text.







IsCatalogInMostPopularTable: catalog: 43923, numindb: 151
Update: records affected: 1



GetName: 43923 IRIDIUM 176

Hit Count: updated at: Sun, 21 Jul 2019 15:51:08 GMT